Photometre #349[Standard_N] Amsterdam_Island AOT

File : 20190926_349.hum

26/09/2019,01:20:34,TEMP=14.1,BA=5.72,STAT.A=Abs.,ExtBa=13.73
26/09/2019,01:23:49,TEMP=14.4,BA=5.72,STAT.A=Abs.,ExtBa=13.64
26/09/2019,01:27:36,TEMP=14.4,BA=5.72,STAT.A=Abs.,ExtBa=13.58
26/09/2019,01:32:06,TEMP=14.3,BA=5.72,STAT.A=Abs.,ExtBa=13.58
26/09/2019,01:37:31,TEMP=14.4,BA=5.72,STAT.A=Abs.,ExtBa=13.57
26/09/2019,01:44:13,TEMP=14.6,BA=5.72,STAT.A=Abs.,ExtBa=13.56
26/09/2019,01:52:36,TEMP=14.6,BA=5.72,STAT.B=Abs.,ExtBa=13.54
26/09/2019,01:59:04,TEMP=15.0,BA=5.72,STAT.A=Abs.,ExtBa=12.83
26/09/2019,02:00:27,TEMP=14.8,BA=5.68,STAT.b=Abs.
26/09/2019,02:01:06,TEMP=15.0,BA=5.68,STAT.A=Abs.,ExtBa=12.84
26/09/2019,02:06:10,TEMP=14.6,BA=5.68,STAT.A=Abs.,ExtBa=12.96
26/09/2019,02:11:54,TEMP=14.6,BA=5.72,STAT.A=Abs.,ExtBa=13.06
26/09/2019,02:13:18,TEMP=14.7,BA=5.72,STAT.b=Abs.
26/09/2019,02:18:39,TEMP=14.6,BA=5.72,STAT.C=Abs.,ExtBa=13.11
26/09/2019,02:26:21,TEMP=15.2,BA=5.68,STAT.A=Abs.,ExtBa=12.82
26/09/2019,02:35:05,TEMP=15.0,BA=5.72,STAT.A=Abs.,ExtBa=13.07
26/09/2019,02:45:47,TEMP=15.1,BA=5.72,STAT.A=Abs.,ExtBa=13.22
26/09/2019,02:58:51,TEMP=15.6,BA=5.72,STAT.A=Abs.,ExtBa=13.35
26/09/2019,03:15:13,TEMP=15.4,BA=5.72,STAT.B=Abs.,ExtBa=13.48
26/09/2019,03:26:42,TEMP=15.3,BA=5.72,STAT.D=Abs.,ExtBa=13.52
26/09/2019,03:41:44,TEMP=15.0,BA=5.72,STAT.F,ExtBa=13.57
26/09/2019,03:56:42,TEMP=15.0,BA=5.72,STAT.D=Abs.,ExtBa=13.60
26/09/2019,04:11:45,TEMP=15.3,BA=5.72,STAT.D=Abs.,ExtBa=13.63
26/09/2019,04:26:47,TEMP=15.5,BA=5.72,STAT.D=Abs.,ExtBa=13.65
26/09/2019,04:41:44,TEMP=15.6,BA=5.72,STAT.F,ExtBa=13.69
26/09/2019,04:56:42,TEMP=15.4,BA=5.72,STAT.D=Abs.,ExtBa=13.71
26/09/2019,04:58:08,TEMP=15.5,BA=5.72,STAT.b=Abs.
26/09/2019,05:11:43,TEMP=15.3,BA=5.72,STAT.D=Abs.,ExtBa=13.72
26/09/2019,05:26:43,TEMP=15.5,BA=5.72,STAT.D=Abs.,ExtBa=13.74
26/09/2019,05:41:44,TEMP=16.5,BA=5.72,STAT.F,ExtBa=13.74
26/09/2019,05:43:11,TEMP=16.6,BA=5.72,STAT.b=Abs.
26/09/2019,05:56:44,TEMP=16.3,BA=5.72,STAT.D=Abs.,ExtBa=13.73
26/09/2019,06:11:44,TEMP=15.9,BA=5.72,STAT.D=Abs.,ExtBa=13.73
26/09/2019,06:26:42,TEMP=15.7,BA=5.72,STAT.D=Abs.,ExtBa=13.74
26/09/2019,06:28:10,TEMP=15.8,BA=5.72,STAT.b=Abs.
26/09/2019,06:41:56,TEMP=15.9,BA=5.72,STAT.F,ExtBa=13.72
26/09/2019,06:56:41,TEMP=15.8,BA=5.72,STAT.D=Abs.,ExtBa=13.75
26/09/2019,06:58:09,TEMP=15.8,BA=5.72,STAT.b=Abs.
26/09/2019,07:11:54,TEMP=14.3,BA=5.72,STAT.D=Abs.,ExtBa=13.71
26/09/2019,07:26:44,TEMP=14.5,BA=5.72,STAT.D=Abs.,ExtBa=13.73
26/09/2019,07:41:45,TEMP=14.6,BA=5.72,STAT.F,ExtBa=13.72
26/09/2019,07:56:43,TEMP=14.9,BA=5.72,STAT.D=Abs.,ExtBa=13.71
26/09/2019,08:11:43,TEMP=15.8,BA=5.72,STAT.D=Abs.,ExtBa=13.71
26/09/2019,08:26:45,TEMP=17.1,BA=5.72,STAT.D=Abs.,ExtBa=13.70
26/09/2019,08:28:11,TEMP=17.4,BA=5.72,STAT.b=Abs.
26/09/2019,08:41:40,TEMP=17.4,BA=5.72,STAT.b=Abs.
26/09/2019,08:56:36,TEMP=17.4,BA=5.72,STAT.b=Abs.
26/09/2019,09:11:42,TEMP=15.2,BA=5.72,STAT.D=Abs.,ExtBa=13.68
26/09/2019,09:26:45,TEMP=14.7,BA=5.72,STAT.D=Abs.,ExtBa=13.68
26/09/2019,09:41:44,TEMP=14.1,BA=5.72,STAT.F,ExtBa=13.70
26/09/2019,09:56:42,TEMP=13.7,BA=5.72,STAT.D=Abs.,ExtBa=13.69
26/09/2019,10:08:15,TEMP=13.5,BA=5.72,STAT.B=Abs.,ExtBa=13.70
26/09/2019,10:24:37,TEMP=12.7,BA=5.72,STAT.A=Abs.,ExtBa=13.69
26/09/2019,10:37:39,TEMP=12.0,BA=5.72,STAT.A=Abs.,ExtBa=13.69
26/09/2019,10:48:21,TEMP=11.8,BA=5.72,STAT.A=Abs.,ExtBa=13.69
26/09/2019,10:57:19,TEMP=11.5,BA=5.72,STAT.A=Abs.,ExtBa=13.68
26/09/2019,11:04:57,TEMP=11.2,BA=5.72,STAT.C=Abs.,ExtBa=13.67
26/09/2019,11:11:32,TEMP=11.0,BA=5.72,STAT.A=Abs.,ExtBa=13.66
26/09/2019,11:17:16,TEMP=11.0,BA=5.72,STAT.A=Abs.,ExtBa=13.65
26/09/2019,11:22:20,TEMP=10.9,BA=5.72,STAT.A=Abs.,ExtBa=13.63
26/09/2019,11:26:49,TEMP=10.9,BA=5.72,STAT.A=Abs.,ExtBa=13.61
26/09/2019,11:30:50,TEMP=10.9,BA=5.72,STAT.B=Abs.,ExtBa=13.58
26/09/2019,11:39:15,TEMP=10.7,BA=5.72,STAT.A=Abs.,ExtBa=13.62
26/09/2019,11:45:55,TEMP=10.8,BA=5.72,STAT.A=Abs.,ExtBa=13.61
26/09/2019,11:51:20,TEMP=10.9,BA=5.72,STAT.A=Abs.,ExtBa=13.60
26/09/2019,11:55:50,TEMP=10.9,BA=5.72,STAT.A=Abs.,ExtBa=13.58
26/09/2019,11:59:37,TEMP=11.0,BA=5.72,STAT.A=Abs.,ExtBa=13.55
26/09/2019,12:02:52,TEMP=11.0,BA=5.72,STAT.A=Abs.,ExtBa=13.53